STARLINK-1371, 45542

Orbit data source: Space-Track

STARLINK-1371, 45542 is a payload satellite owned by SpaceX/Seattle (US) in LEO that was launched on Wed, 22 Apr 2020 UTC via an FALCON 9 launch vehicle from the Air Force Eastern Test Range (AFETR). Payload-class satellites include a variety of spacecraft equipped with specific instruments for various scientific and technological missions. These include communications satellites like Starlink; space stations such as the ISS; scientific satellites like the Hubble; Earth observation satellites from companies like Planet Labs, Umbra, and HawkEye 360; GPS; miniature CubeSats for education and research; and military/defense satellites.

Loading next visibility...
Identifier
45542, 2020-025M
Orbit
LEO
Country
Flag of USUS
Related business
Manufacturer
SpaceX/Seattle
Mission
Partially operational Commercial Communications
Bus & Motor
STARLINK, Unknown motor
Mass
260 kg wet, ~248 kg dry
Launch date (UTC)
2020-04-22 (6 years ago)
Launch vehicle
FALCON 9
Launch site
Air Force Eastern Test Range (AFETR)
Object type
Payload
Rocket body
Debris
Shape & HBR
Box + 1 Pan, 10.1 m
Radar Cross Section
13.562 m², Large (>1 m²)

Expand to show TLE details & history
Last TLE update: 6 hours ago

TLE from 6 hours ago
0 STARLINK-1371
1 45542U 20025M   26178.00003472 -.00052282  00000-0 -41841-3 0  9991
2 45542  53.0425 279.6799 0001657  52.2247 138.6362 15.70324935  5767
Epoch: 2026-06-27T00:00Z
TLE epoch observation values (Epoch: 2026-06-27T00:00:02.999Z)
Latitude
-8.80284°
Longitude
-168.7998°
Altitude
361.267 km
Speed
7.693 km/s
True Right ascension
07h 05m 19s
True Declination
-8° 44' 53"
Sunlit
Object was in daylight at epoch
Visualization orbit readout
Latitude
Unknown
Longitude
Unknown
Altitude
Unknown
Speed
Unknown
Apparent Right ascension
Unknown
Apparent Declination
Unknown
Sunlit
N/A
Visualization observer readout
Local Sidereal Time
17:20:59
Azimuth
Unknown
Elevation
Unknown
Doppler factor
Unknown
Orbital elements
Apogee altitude
359.364 km
Perigee altitude
357.131 km
Semi-major axis
6,736.385 km
Eccentricity
0.00017
Inclination
53.0425°
RAAN
279.6799°
Arg. of periapsis
52.2247°
True anomaly
138.64875°
Mean anomaly
138.6362°
Eccentric anomaly
138.64247°
Mean motion
3.92557 °/min
Orbital period
91.71 mins
BSTAR
-0.00041841
Loading maneuver chart data...
Computing Atmospheric mass density...

Documentation

Showing up to 5 results
|